STARLINK-30323 (57634 NORAD) Tracking and Keplerian Element Data

This shows tracking and keplerian element data for the satellite.

Feedback or suggestion? Click here.




ElementValue
Catalog57634
NameSTARLINK-30323
Epoch Orbit279
Epoch Day238.91667824
Epoch Year2023
RAAN95.9302
Inclination43.0005
Eccentricity0.0001863
Argument of Perigee167.4548
Mean Anonmoly255.4414
Mean Motion15.86038913
Decay Rate-0.00896858
L11 57634U 23122C 23238.91667824 -.00896858 00000+0 -38856-2 0 9993
L22 57634 43.0005 95.9302 0001863 167.4548 255.4414 15.86038913 2797



Live tracking and technical data element details for STARLINK-30323 (NORAD 57634). STARLINK-30323 can be tracked NOW for your location showing map with azimuth and elevation plus other details from your city location.







IsCatalogInMostPopularTable: catalog: 57634, numindb: 7
Update: records affected: 1



GetName: 57634 STARLINK-30323

Hit Count: updated at: Tue, 26 Sep 2023 12:05:53 GMT